Regional Weather Roundup
Issued by NWS Wakefield, VA

Current Version | Previous Version | Text Only | Print | Product List | Glossary Off
Versions: 1 2 3 4 5 6 7 8 9 10 11 12 13 14 15 16 17 18 19 20 21 22 23 24 25 26 27 28 29 30 31 32 33 34 35 36 37 38 39 40 41 42 43 44 45 46 47 48 49 50

000
ASUS41 KAKQ 242210
RWRAKQ

REGIONAL WEATHER ROUNDUP
NATIONAL WEATHER SERVICE WAKEFIELD VA
500 PM EST MON NOV 24 2014

Note: "fair" indicates few or no clouds below 12,000 feet with no
significant weather and/or obstructions to visibility. * = Denotes
station may not report precipitation (e.g., rain,snow,etc.),
thunder or fog.

VAZ042-051-052>054-056-242300-
NORTHERN VIRGINIA

CITY           SKY/WX    TMP DP  RH WIND       PRES   REMARKS
WASH NATIONAL  PTCLDY    71  52  50 S12       29.66R
DULLES         CLEAR     67  52  58 S10       29.65R
FORT BELVOIR   CLEAR     68  52  56 VRB6      29.67R
QUANTICO       PTCLDY    59  48  67 SW10      29.67R
FREDERICKSBRG* CLEAR     72  54  52 S10G22    29.67R
STAFFORD*      CLEAR     71  49  46 S7G16     29.71R
WARRENTON      CLEAR     69  58  69 S6        29.66R
CULPEPER*      CLEAR     70  54  56 S6        29.66R
MANASSAS*      CLEAR     70  54  56 S8G16     29.65R
LEESBURG*      CLEAR     68  55  64 S13       29.65R
WINCHESTER     CLEAR     66  45  45 S8        29.62R
FRONT ROYAL*   CLEAR     64  50  59 S8        29.61R
LURAY*         CLEAR     68  52  56 S9        29.64R
$$

VAZ048-049-060>072-079>083-242300-
CENTRAL AND SOUTH CENTRAL VIRGINIA

CITY           SKY/WX    TMP DP  RH WIND       PRES   REMARKS
RICHMOND       PTCLDY    71  58  63 S18G25    29.72R
CHESTERFIELD*  PTCLDY    70  52  52 S12G21    29.74R
PETERSBURG*    PTCLDY    71  60  68 S9G18     29.75R
HANOVER        CLEAR     70  56  61 S13       29.73R
TAPPAHANNOCK*  CLEAR     71  53  53 S9        29.72R
QUINTON*       CLEAR     71  59  66 S9        29.72R
CHARLOTTSVILLE CLEAR     68  52  56 SW12      29.68R
GORDONSVILLE*  CLEAR     68  53  59 S13G18    29.67R
ORANGE*        CLEAR     70  54  56 S12G20    29.69R
LOUISA*        CLEAR     70  54  56 S5        29.68R
BUMPASS*       CLEAR     70  54  56 S6        29.69R
FARMVILLE*     CLEAR     71  54  54 S9        29.71R
CREWE*         CLEAR     69  56  62 S7        29.73R
FORT PICKETT*  PTCLDY    68  59  73 S10       29.74R
CHASE CITY*    CLEAR     70  61  73 S5        29.74S
CLARKSVILLE*   CLEAR     68  61  77 S5        29.72F
SOUTH HILL*    MOCLDY    68  61  78 S10       29.81R
LAWRENCEVILLE* PTCLDY    68  63  84 S7        29.75S
$$

VAZ088>098-242300-
SOUTHEAST VIRGINIA

CITY           SKY/WX    TMP DP  RH WIND       PRES   REMARKS
NORFOLK        CLOUDY    71  64  78 S20G26    29.77R
VIRGINIA BEACH CLOUDY    72  65  78 SW16G22   29.78R
NORFOLK NAVAL  CLOUDY    74  64  71 S8G24     29.79R
WEST POINT*    PTCLDY    72  59  62 S10G16    29.74R
SALUDA*        FAIR      70  61  72 SW14G22   29.72S
NEWPORT NEWS   CLOUDY    74  63  68 S14       29.76R
LANGLEY AFB    CLOUDY    71  67  87 S16       29.77R
FORT EUSTIS    MOCLDY    69  60  71 S9G20     29.74R
WILLIAMSBURG*  MOCLDY    73  64  73 S13       29.76S
HR EXEC AP*    MOCLDY    64  64 100 S13G18    29.80S
FRANKLIN*      CLOUDY    70  63  78 S13G25    29.78R
WAKEFIELD      CLOUDY    71  62  73 S10G20    29.76R
$$

VAZ020-022-025-037-045-242300-
WEST CENTRAL AND SOUTHWEST VIRGINIA

CITY           SKY/WX    TMP DP  RH WIND       PRES   REMARKS
STAUNTON*      CLEAR     65  49  58 S9        29.69R
WAYNESBORO*    CLEAR     64  50  61 S9G16     29.69R
HOT SPRINGS VA CLEAR     59  34  39 W20G26    29.74R
LYNCHBURG      CLEAR     66  52  60 SW12      29.74R
DANVILLE       CLEAR     70  53  54 SW7       29.73S
SOUTH BOSTON*  CLEAR     70  55  59 S7        29.72F
MARTINSVILLE   CLEAR     67  54  62 CALM      29.76F
ROANOKE        CLEAR     66  51  58 S9        29.74R
BLACKSBURG     CLEAR     63  55  77 S7        29.77R
DUBLIN*        CLEAR     64  51  62 SW8       29.76R
MARION*        CLEAR     64  37  37 W16G22    29.79R
HILLSVILLE*    CLEAR     60  52  73 S8G16     29.78R
RICHLANDS*     CLEAR     65  38  36 SW15G26   29.77R
WISE*          PTCLDY    61  36  39 SW18G28   29.77R
ABINGDON*      CLEAR     68  36  31 W16G25    29.76R
$$

MDZ021>025-VAZ099-100-242300-
SOUTHERN MARYLAND AND THE DELMARVA PENINSULA

CITY           SKY/WX    TMP DP  RH WIND       PRES   REMARKS
PATUXENT RIVER PTCLDY    69  54  58 S10       29.70R
BAY BRIDGE APT   N/A     63  52  67 S13       29.68R
LEONARDTOWN    CLEAR     68  54  60 S9G17     29.71S
DOVER          CLEAR     68  57  68 S18G26    29.67R
GEORGETOWN     PTCLDY    70  57  63 S16G25    29.72R
EASTON         PTCLDY    68  57  68 S13G18    29.72R
CAMBRIDGE      NOT AVBL
SALISBURY      CLEAR     70  59  68 S15       29.73R
OCEAN CITY     CLOUDY    62  59  90 SW14      29.75S
WALLOPS ISLAND CLOUDY    62  59  90 SW20G30   29.75S
ACCOMACK*      CLOUDY    64  59  82 S9G16     29.75R
$$

NCZ012>017-030>032-242300-
NORTH CENTRAL AND EASTERN NORTH CAROLINA

CITY           SKY/WX    TMP DP  RH WIND       PRES   REMARKS
ROANOKE RAPIDS PTCLDY    68  63  83 S9        29.77S
RALEIGH        MOCLDY    68  61  78 S9        29.78S
ELIZABETH CITY CLOUDY    71  66  84 S12       29.83F
AHOSKIE*       DRIZZLE   68  65  88 S9G18     29.80S
EDENTON*       CLOUDY    67  65  93 S15       29.83R
CURRITUCK*     MOCLDY    68  65  90 S6        29.83S
KILL DEVIL HLS CLOUDY    69  67  94 SW7       29.85S
MANTEO         CLOUDY    67  64  92 SW17      29.86F
CAPE HATTERAS  CLOUDY    68  68 100 SW9       29.90R FOG
TARBORO*       CLOUDY    70  65  82 S9G21     29.80F
GOLDSBORO      MOCLDY    68  67  98 VRB2G17   29.82R
WASHINGTON     CLOUDY    68  65  88 S6        29.85R
GREENVILLE     MOCLDY    70  64  83 S9        29.87R
NEW BERN       CLOUDY    73  69  87 S9        29.88R
WILMINGTON     CLOUDY    71  69  93 SW13G21   29.88R
$$

VAZ048-242300-
ELSEWHERE

CITY           SKY/WX    TMP DP  RH WIND       PRES   REMARKS
HARRISBURG PA  PTCLDY    65  50  58 S9        29.59R
BALTIMORE      CLEAR     70  51  51 S8        29.64R
ANNAPOLIS      CLEAR     60  50  69 S13       29.66R
ANDREWS AFB    CLEAR     68  53  57 S15       29.66R
PHILADELPHIA   PTCLDY    68  55  63 SW16      29.67R
WILDWOOD NJ*   PTCLDY    63  55  77 S13         N/A
HENDERSON NC   MOCLDY    68  59  72 S12G17    29.74F
GREENSBORO     PTCLDY    69  52  54 SW14G21   29.75S
ROCKY MOUNT    MOCLDY    69  64  84 S12       29.81R
$$

VAZ100-242300-
MARINE

STATION/POSITION TIME  TEMP    WIND        PRES    WAVE   SWELL
                       AIR SEA DIR/SP/G            HT/PER HT/PER
                 (UTC) (F)     (DEG/KT/KT) (MB)    (FT/S) (FT/S)
CAPE MAY NJ      2200   61 50  160/ 11/ 14 1006.1R
LEWES DE         2200   70 50  210/  8/ 15 1005.9R
15NM E FENWICK I 2200   60 53              1006.5F   8/10
OCEAN-CITY-INLET 2200   58 52  230/ 11/ 15 1006.8R
WACHAPREAGUE VA  2200   62 54  210/ 12/ 16 1007.6R
THOMAS POINT MD  2200   57 48  170/ 20/ 21 1005.6R
GOOSES REEF MD   2200   57     180/ 12/ 14 1005.5F
COVE POINT MD    2200   58     190/ 14/ 14 1005.4R
SOLOMONS ISLAND  2200      51                N/A
BISHOPS HEAD MD  2200   59 49  190/ 16/ 18 1005.7R
PINEY POINT MD   2200          220/ 12/ 15   N/A
POTOMAC MD       2200   63     210/ 10/ 12 1005.2S
CAMBRIDGE MD     2200   66 44  180/  7/ 12 1005.4S
LEWISETTA VA     2200   70 49  220/ 14/ 18 1005.5R
RAPPAHANNOCK LGT 2200          180/ 21/ 22 1007.6R
STINGRAY PT      2200   63     200/ 12/ 16 1007.5R
YORK RVR RNG VA  2200   65     210/ 19/ 22 1006.6S
YORKTOWN VA      2200   71 51  200/ 11/ 16 1006.9R
JAMESTOWN VA     2200   67     210/ 14/ 17   N/A
DOMINION TERM VA 2200   65     200/ 14/ 17 1007.9R
KIPTOPEKE VA     2200      56  190/ 13/ 15   N/A
CHES BAY BRIDGE  2200   70 52  180/ 18/ 22 1007.6F
CAPE HENRY VA    2200   71     190/ 11/ 18 1007.1F
CHESAPEAKE LGHT  2100   63     190/ 30/ 31 1008.0F
WILLOUBY STN VA  2200   70     200/ 18/ 21 1006.7R
S CRANEY ISL VA  2200          190/ 12/ 17 1008.0R
CAPE HENRY BUOY  2200      56                N/A     5/ 9   2/11
1ST LANDING BUOY 2200   67     200/ 16/ 23 1008.2F
CAPE CHARLES BUO 2200      55                N/A     5/10   5/ 7
64NM E OF VA BCH 2200   67 62  210/ 17/ 19 1010.4R   9/10   7/10
DUCK PIER NC     2200   67 57  200/ 11/ 13 1009.8S
44100 DUCK FRF   2200      59                N/A     6/ 9   2/11
44056 DUCK FRF   2200      58                N/A     5/10   2/11
OREGON INLET NC  2200   57 56  220/  9/ 11 1011.9R
HATTERAS NC      2200   69 62  190/  4/  8 1012.8R
DIAMOND SHLS NC  2200   75     190/ 16/ 19 1012.4R   7/10   5/10
CAPE LOOKOUT NC  2100   70     200/ 10/ 13 1011.7S
$$


USA.gov is the U.S. government's official web portal to all federal, state and local government web resources and services.